Location: Newark
(46.5125°N, 5.8403°E)
Time: 12:19:26
(UTC+00:00)

ISS - Visible Passes

Search period start: 16 September 2019 00:00
Search period end: 26 September 2019 00:00
Orbit: 411 x 421 km, 51.6° (Epoch: 16 September)

Date Brightness Start Highest point End Pass type
(mag) Time Alt. Az. Time Alt. Az. Time Alt. Az.
18 Sep -1.5 19:24:12 10° SSW 19:24:55 14° S 19:24:55 14° S visible
19 Sep -2.1 18:36:34 10° S 18:38:42 16° SE 18:39:17 16° ESE visible
19 Sep -1.0 20:11:44 10° WSW 20:12:14 14° WSW 20:12:14 14° WSW visible
20 Sep -3.7 19:23:19 10° SW 19:26:20 57° S 19:26:20 57° S visible
21 Sep -3.2 18:35:04 10° SSW 18:38:10 37° SE 18:40:12 18° E visible
21 Sep -1.5 20:11:37 10° W 20:13:07 23° W 20:13:07 23° W visible
22 Sep -3.5 19:23:00 10° WSW 19:26:18 66° NNW 19:26:49 54° NNE visible
23 Sep -3.9 18:34:26 10° WSW 18:37:46 86° SSE 18:40:24 15° ENE visible
23 Sep -1.3 20:11:40 10° WNW 20:13:17 23° WNW 20:13:17 23° WNW visible
24 Sep -2.7 19:22:56 10° W 19:26:06 40° NNW 19:26:45 36° NNE visible
25 Sep -3.1 18:34:14 10° W 18:37:29 51° NNW 18:40:07 14° NE visible
25 Sep -1.1 20:11:37 10° WNW 20:13:01 20° NW 20:13:01 20° NW visible
